Wind_Speed
11 11 10 9 9 9 8 8 8 7 7 7 7 7 7 8 9 9 10 11 11 12 13 14 14 16 17 17 18 19 21 22 23 23 23 23 24 24
11 11 10 10 10 9 9 8 8 8 8 8 8 8 9 10 10 11 11 12 13 13 14 15 16 17 18 19 19 20 22 23 25 25 25 25 25 26
11 11 11 11 11 11 10 10 9 10 10 10 10 11 12 12 12 13 13 14 14 15 16 17 18 19 20 21 21 22 23 24 25 27 28 28 28 28
12 12 12 13 13 13 12 12 12 12 13 13 14 14 15 15 16 16 16 17 17 18 19 19 20 21 22 23 24 25 26 26 27 27 27 28 29 29
13 13 14 14 14 14 14 14 15 15 16 16 17 17 18 18 19 19 20 20 21 21 22 22 23 23 24 25 26 27 28 29 29 30 30 30 29 30
15 16 16 16 16 16 16 17 17 18 18 19 19 20 20 21 21 22 23 23 24 24 25 25 26 26 27 28 29 29 30 30 31 32 32 33 33 33
18 18 18 18 18 19 19 20 20 21 21 22 22 23 23 24 24 25 25 26 27 28 28 28 29 30 30 31 32 32 32 33 33 34 35 36 36 37
20 20 21 21 21 21 22 23 23 23 24 24 25 25 26 27 27 28 29 29 30 30 31 32 32 33 33 34 34 35 35 36 37 37 38 38 39 39
22 23 23 23 24 24 25 25 26 26 26 27 28 28 29 30 31 31 32 33 34 35 35 36 36 37 37 38 38 39 40 40 40 40 40 41 42 42
25 25 26 26 26 27 27 28 28 28 29 30 30 32 32 33 34 35 36 36 37 39 40 40 41 42 42 44 44 44 44 45 45 45 45 45 45 45
27 28 28 29 29 30 30 30 31 31 32 32 33 34 35 37 38 39 40 41 41 43 45 46 46 47 47 48 49 49 49 49 49 49 50 50 50 50
30 30 31 32 32 32 32 32 33 33 34 35 36 37 38 40 41 43 44 45 46 47 49 50 51 52 51 51 52 53 53 53 53 54 54 54 54 54
33 33 34 35 35 35 34 34 35 36 37 38 39 40 41 42 44 45 47 48 49 50 51 53 54 54 55 54 54 55 56 56 56 56 56 56 56 57
35 36 37 37 37 37 37 37 38 39 39 40 41 42 44 45 46 48 50 51 52 53 54 55 56 57 57 56 55 55 56 57 57 56 56 56 56 57
37 38 38 38 38 38 39 40 41 42 43 44 44 46 47 49 50 52 53 54 55 56 58 59 59 59 59 59 58 56 56 56 57 57 56 57 57 57
39 40 40 40 40 41 41 43 44 45 46 47 48 49 50 52 53 55 56 57 57 58 60 61 61 61 61 60 59 57 57 57 57 57 57 58 58 58
41 41 41 42 42 44 45 46 47 48 49 50 51 52 53 55 56 57 59 60 61 61 61 62 62 62 62 61 60 59 58 58 58 58 58 58 58 58
44 44 44 44 45 46 48 49 49 50 51 53 54 55 56 58 59 60 62 63 63 63 63 62 62 61 60 59 61 61 60 59 58 57 57 57 57 57
46 47 47 48 48 49 50 50 51 52 54 55 56 57 59 60 61 63 64 65 65 64 63 61 61 61 61 59 58 60 60 58 57 56 56 57 57 57
48 49 50 50 50 51 51 51 52 54 55 56 58 59 60 62 63 64 64 65 64 63 61 60 60 61 62 61 58 55 56 56 55 54 53 54 55 56
50 50 50 51 51 52 52 53 54 55 56 58 59 60 62 63 64 64 64 64 63 62 60 59 58 59 59 59 57 53 51 51 52 53 52 52 51 52
51 51 51 51 52 53 54 55 56 57 58 59 60 62 63 64 64 64 64 63 62 61 60 58 57 57 56 56 54 51 48 47 48 48 48 47 46 46
51 52 52 53 53 55 56 57 58 59 60 61 62 63 63 64 64 64 63 62 62 61 59 58 56 55 54 53 51 48 46 45 44 43 42 41 42 42
Wind_Direction
28 29 28 24 20 18 16 13 9 5 358 352 348 338 329 325 320 314 305 298 295 291 286 283 279 274 270 267 265 263 259 256 255 255 251 249 248 248
21 19 15 11 8 6 0 356 352 347 343 337 333 328 323 319 315 312 308 301 297 294 290 285 282 281 278 274 271 266 263 260 256 254 253 252 252 251
6 4 2 357 353 349 344 339 334 331 329 325 321 318 316 313 310 307 305 300 296 293 291 288 285 281 278 277 275 272 268 264 260 257 254 253 252 252
352 349 346 344 341 338 334 328 324 320 316 314 313 311 309 306 305 304 303 300 297 294 292 289 286 283 281 278 275 274 271 267 264 263 260 257 255 254
341 338 335 333 331 328 324 321 318 315 312 311 309 308 305 303 302 302 302 300 298 294 291 289 287 285 283 280 278 276 274 270 266 264 263 262 258 256
332 330 327 324 321 319 316 315 313 310 309 308 308 307 305 303 302 300 299 299 298 296 293 291 289 286 285 283 280 277 274 272 269 266 263 262 261 258
323 323 321 320 318 315 313 312 309 307 305 304 305 305 303 302 300 299 298 298 296 295 294 292 290 288 287 286 283 280 276 273 271 268 266 262 261 260
319 318 317 316 314 312 311 309 307 304 302 302 302 302 301 300 299 298 297 296 295 293 293 293 291 288 287 285 284 283 279 275 273 270 267 264 262 261
315 314 313 312 311 309 308 307 305 304 302 301 301 301 300 299 298 297 296 295 294 292 291 291 290 288 286 284 283 282 281 278 274 271 269 266 262 261
312 311 310 308 307 307 306 305 303 302 300 301 301 300 300 299 299 298 297 296 294 293 292 291 290 288 286 285 283 281 280 277 274 271 269 267 265 261
309 308 307 306 305 305 304 302 301 300 300 301 300 300 299 298 298 298 297 296 295 294 293 292 291 289 287 286 284 282 279 277 274 271 268 266 264 262
306 306 306 305 304 303 302 301 300 299 299 299 299 298 298 298 298 298 298 297 296 295 294 293 292 290 288 286 284 282 280 277 274 271 269 266 264 262
304 304 304 304 303 302 301 300 299 298 298 298 298 297 298 298 298 299 298 298 297 296 296 294 293 292 290 288 285 282 280 277 274 271 268 266 265 263
302 303 303 303 302 301 300 299 299 299 298 298 298 298 298 299 299 299 299 298 298 298 297 296 295 294 292 289 287 283 280 278 274 270 268 266 265 264
301 301 302 302 301 300 300 299 299 298 298 298 298 298 299 300 300 300 299 299 298 298 298 297 296 294 293 291 289 285 281 278 274 270 268 266 265 264
300 300 300 300 299 299 299 299 299 298 298 298 298 299 299 300 300 300 300 299 299 298 298 297 295 294 293 291 289 286 283 279 275 271 268 266 265 264
299 299 299 299 298 298 298 298 298 298 298 298 299 299 299 300 300 300 300 300 300 299 298 296 294 293 292 291 290 287 284 281 278 273 269 266 265 263
298 299 298 299 299 299 298 298 298 297 298 299 299 299 300 300 300 301 301 301 301 300 299 297 294 292 290 290 291 288 285 283 278 273 270 267 264 262
297 298 298 298 299 299 299 298 298 298 298 299 300 300 301 301 301 302 302 302 301 300 299 297 295 293 291 290 289 288 286 283 279 273 271 268 265 262
298 298 297 298 298 299 299 299 299 299 299 300 301 301 302 303 303 303 303 303 302 301 300 298 296 295 294 293 291 289 287 284 280 276 273 269 266 262
297 298 298 298 298 298 299 299 300 301 301 301 302 303 303 303 304 304 304 304 304 303 301 299 297 296 295 294 293 291 288 284 281 278 275 271 265 260
296 297 298 298 298 298 299 299 300 301 302 303 303 303 303 303 304 304 304 304 304 303 301 300 298 297 295 294 293 291 288 284 281 279 276 273 267 261
296 296 297 298 298 299 299 300 300 301 301 302 303 304 304 304 304 304 304 304 304 303 302 301 299 298 296 294 293 291 289 285 281 277 274 272 267 262
Height
5869 5868 5867 5867 5866 5866 5866 5865 5865 5865 5865 5864 5864 5864 5864 5864 5864 5864 5864 5864 5864 5864 5864 5865 5865 5865 5866 5867 5867 5868 5869 5870 5871 5872 5873 5874 5875 5877
5870 5869 5868 5867 5867 5866 5866 5865 5864 5864 5864 5863 5863 5863 5862 5862 5862 5862 5861 5861 5861 5861 5861 5861 5862 5862 5862 5862 5863 5863 5864 5865 5865 5866 5867 5869 5870 5871
5870 5869 5868 5867 5866 5865 5865 5864 5863 5863 5862 5862 5861 5861 5860 5860 5859 5859 5859 5858 5858 5858 5857 5857 5857 5857 5857 5857 5857 5858 5858 5859 5859 5860 5861 5862 5864 5865
5870 5869 5868 5866 5865 5864 5863 5862 5861 5860 5860 5859 5859 5858 5857 5856 5856 5855 5855 5854 5854 5853 5853 5852 5852 5851 5851 5851 5851 5851 5851 5852 5853 5853 5854 5855 5856 5857
5869 5868 5866 5864 5863 5862 5860 5859 5858 5857 5856 5856 5855 5854 5853 5852 5851 5851 5850 5849 5848 5847 5847 5846 5845 5845 5844 5844 5844 5844 5844 5844 5845 5845 5846 5847 5848 5849
5867 5865 5863 5862 5860 5858 5857 5856 5854 5853 5852 5851 5850 5849 5848 5847 5846 5845 5844 5843 5842 5841 5840 5839 5838 5837 5836 5836 5835 5835 5834 5835 5835 5836 5837 5838 5839 5840
5864 5862 5860 5858 5856 5854 5853 5851 5850 5848 5847 5846 5845 5844 5842 5841 5840 5839 5837 5836 5835 5833 5832 5831 5830 5829 5827 5826 5825 5824 5824 5824 5825 5825 5826 5827 5828 5830
5860 5858 5856 5853 5851 5849 5848 5846 5844 5843 5841 5840 5839 5837 5835 5834 5832 5831 5829 5828 5826 5825 5823 5822 5820 5819 5818 5816 5815 5814 5813 5813 5813 5814 5814 5815 5816 5818
5855 5853 5851 5848 5846 5844 5842 5840 5837 5835 5834 5833 5831 5829 5827 5826 5824 5822 5820 5818 5816 5814 5813 5812 5810 5808 5807 5805 5803 5802 5801 5801 5801 5801 5801 5802 5803 5804
5850 5847 5845 5842 5840 5837 5835 5833 5831 5828 5827 5825 5823 5821 5818 5816 5814 5812 5810 5808 5805 5802 5800 5799 5797 5795 5793 5791 5789 5788 5787 5786 5786 5786 5786 5787 5788 5790
5843 5841 5838 5835 5833 5830 5828 5825 5823 5821 5819 5816 5814 5811 5808 5806 5803 5800 5798 5795 5793 5790 5786 5784 5782 5780 5778 5776 5773 5771 5770 5769 5769 5769 5769 5770 5771 5773
5837 5834 5830 5827 5825 5822 5820 5817 5815 5812 5810 5807 5804 5801 5798 5795 5791 5788 5785 5782 5779 5776 5772 5768 5765 5762 5762 5760 5756 5753 5751 5750 5749 5749 5750 5751 5752 5754
5829 5825 5822 5819 5816 5813 5810 5808 5805 5803 5800 5797 5794 5791 5787 5784 5780 5776 5771 5767 5764 5760 5756 5751 5747 5743 5740 5739 5738 5733 5730 5728 5728 5728 5728 5729 5730 5732
5820 5817 5813 5810 5806 5803 5800 5797 5794 5792 5789 5786 5783 5779 5776 5772 5767 5763 5758 5753 5748 5743 5738 5733 5729 5724 5720 5717 5716 5714 5710 5707 5705 5706 5706 5707 5709 5711
5810 5807 5803 5800 5796 5793 5790 5786 5783 5780 5777 5774 5770 5766 5762 5758 5753 5748 5743 5738 5733 5727 5720 5715 5709 5704 5699 5695 5693 5691 5689 5687 5684 5683 5684 5686 5687 5689
5800 5797 5793 5789 5786 5782 5779 5775 5771 5768 5764 5760 5756 5752 5748 5743 5737 5732 5727 5721 5717 5711 5704 5696 5689 5684 5679 5675 5671 5669 5666 5664 5663 5662 5662 5664 5666 5667
5789 5786 5782 5778 5774 5770 5767 5763 5759 5754 5750 5746 5742 5737 5732 5726 5721 5715 5709 5703 5698 5692 5686 5679 5671 5664 5659 5655 5651 5648 5644 5642 5640 5639 5639 5642 5644 5645
5777 5773 5769 5765 5762 5757 5753 5749 5744 5740 5735 5730 5725 5720 5715 5709 5704 5697 5690 5684 5677 5671 5665 5658 5651 5646 5642 5639 5631 5625 5623 5620 5618 5616 5616 5617 5622 5624
5764 5760 5756 5752 5748 5743 5738 5734 5729 5724 5719 5714 5709 5703 5697 5691 5685 5679 5672 5664 5657 5651 5644 5637 5630 5624 5619 5618 5617 5607 5600 5598 5596 5595 5594 5595 5598 5602
5750 5746 5742 5737 5733 5728 5723 5719 5714 5709 5703 5698 5692 5686 5679 5673 5666 5659 5652 5645 5638 5631 5625 5618 5611 5603 5597 5593 5592 5591 5582 5576 5574 5574 5574 5574 5576 5579
5736 5731 5727 5722 5718 5713 5708 5703 5698 5693 5687 5681 5675 5669 5662 5655 5648 5641 5633 5626 5618 5611 5605 5600 5593 5585 5578 5573 5570 5570 5566 5559 5554 5553 5552 5552 5554 5557
5721 5717 5712 5707 5703 5698 5693 5687 5682 5676 5671 5664 5658 5651 5644 5636 5629 5622 5615 5607 5600 5593 5587 5581 5574 5568 5561 5555 5551 5549 5548 5544 5539 5536 5534 5533 5533 5537
5706 5701 5697 5692 5687 5682 5676 5671 5665 5660 5654 5647 5640 5633 5626 5618 5611 5604 5596 5589 5582 5575 5569 5563 5557 5551 5545 5539 5534 5531 5529 5526 5524 5522 5522 5520 5519 5521